Snowfall_Accumulation
0.2 0.3 0.7 1.2 2.2 1.9 2.2 2.1 1.9 1.9 1.9 1.7 1.7 1.7 2.0 1.8 1.9 1.5 1.3 1.4 1.0 0.8 0.7 1.2 1.1 0.9 1.1 1.3 1.7 1.3 0.9 1.7 2.3 2.8 1.2 0.8 0.7 0.8 0.7 0.1 0.4 1.0 4.2
0.7 0.6 2.1 2.7 2.5 2.4 2.5 2.3 2.5 2.5 2.3 2.3 2.3 1.6 1.6 1.7 1.9 2.0 2.1 1.9 1.8 1.6 1.3 1.1 1.2 1.1 1.3 1.9 2.0 2.0 1.6 2.0 2.0 3.8 2.4 1.9 1.6 2.9 3.5 1.6 0.9 0.5 0.9
3.2 2.8 3.3 3.6 3.5 3.3 3.1 2.7 2.5 2.5 2.8 2.0 2.3 2.5 2.0 1.8 1.8 1.8 2.0 1.8 1.7 1.6 1.8 1.8 2.1 1.3 0.9 1.9 3.0 3.4 2.3 1.4 2.3 3.0 3.6 3.0 3.8 3.5 3.7 3.1 0.6 0.5 0.0
7.4 4.8 4.3 4.6 5.0 4.4 3.0 2.9 1.2 0.8 0.9 1.2 1.8 3.0 3.0 2.0 1.6 2.0 1.5 1.4 1.6 2.1 2.2 2.0 2.6 2.3 2.5 1.9 2.1 3.4 3.4 3.1 2.9 3.1 3.2 4.9 4.4 8.6 2.9 4.7 7.8 2.9 1.7
9.1 8.4 8.2 6.3 4.2 3.3 3.1 2.0 1.1 1.2 1.3 0.5 0.0 0.3 0.4 1.1 1.9 1.5 1.7 1.3 1.0 1.7 1.8 1.2 1.5 2.5 2.6 3.0 2.7 2.7 2.5 2.9 3.0 6.0 6.8 9.1 9.3 10.6 10.9 8.5 6.2 6.0 5.0
4.7 9.3 7.7 6.8 7.0 4.5 3.0 2.1 2.3 2.2 1.2 1.6 2.5 2.0 1.6 1.9 0.8 0.8 1.1 1.7 4.0 4.0 1.4 1.3 1.2 0.9 1.2 1.5 2.0 1.8 1.4 2.7 3.9 5.3 5.7 6.9 8.9 7.7 7.5 6.5 8.6 9.4 10.4
2.5 7.9 9.6 8.7 6.9 8.5 1.4 1.5 2.9 5.5 5.2 4.1 5.3 3.3 5.4 6.0 4.4 2.3 1.1 2.5 2.7 2.1 0.6 0.8 1.0 0.5 0.1 0.2 0.0 0.0 0.2 0.3 1.0 1.8 3.8 4.6 5.8 6.2 6.1 6.7 5.3 4.6 4.3
0.4 3.3 4.7 4.8 6.1 16.7 11.6 12.8 14.6 9.0 11.1 11.0 10.9 11.6 11.2 14.5 13.0 16.7 17.2 8.8 8.4 8.7 7.7 6.4 3.1 1.3 1.8 0.5 0.7 0.5 0.2 0.2 0.2 0.5 0.5 0.5 3.5 2.1 0.4 0.5 6.6 6.6 9.1
0.1 0.7 1.4 4.4 6.9 17.4 22.7 22.8 23.2 25.3 20.6 18.9 16.3 15.1 14.3 10.7 12.0 7.8 8.4 12.1 19.0 18.7 8.9 9.0 8.4 11.5 10.7 8.0 3.1 1.4 1.3 1.3 1.6 5.0 0.7 3.2 4.0 4.5 4.8 10.4 15.4 16.5 13.7
0.4 0.3 0.0 0.0 1.3 4.8 11.7 16.5 17.6 16.1 18.0 18.0 17.3 17.5 16.1 15.7 14.0 13.7 10.4 8.9 9.8 9.6 11.1 12.8 9.9 8.1 9.5 7.4 2.6 7.1 6.5 5.8 9.1 8.9 10.7 10.1 10.1 9.9 5.8 6.9 6.7 15.0 14.5
4.4 3.8 2.1 0.0 0.6 2.5 5.4 9.3 8.1 6.7 9.1 10.3 10.9 11.8 10.0 9.1 11.0 10.5 8.0 8.3 8.3 8.9 8.2 7.7 6.2 6.7 3.7 4.3 4.6 5.1 9.2 8.5 6.8 7.8 8.6 10.5 10.4 13.5 15.6 15.8 12.1 17.2 20.9
8.8 9.9 5.6 5.3 8.8 9.8 9.9 9.8 11.6 8.8 8.0 8.8 6.9 7.6 7.6 9.0 7.3 6.0 5.0 3.9 5.8 6.1 7.7 7.9 7.6 5.3 5.6 6.3 6.9 7.6 7.9 10.1 15.8 18.0 21.8 20.7 20.6 18.8 17.3 16.4 15.8 15.3 14.7
15.7 14.6 15.7 14.8 13.3 15.8 16.2 13.9 12.9 11.9 9.5 8.9 7.9 6.4 7.0 7.3 6.3 6.6 5.6 4.8 4.3 4.9 6.5 6.8 6.4 5.2 6.7 7.8 11.0 14.2 13.0 14.9 20.3 21.9 20.8 21.1 20.3 15.6 12.7 15.0 12.5 7.9 6.9
18.7 19.9 18.8 19.0 19.0 18.9 19.5 18.8 16.6 16.7 15.8 12.9 10.6 11.6 12.1 11.5 9.9 8.9 8.7 9.5 7.9 8.2 7.9 9.8 12.1 17.9 16.2 18.2 18.6 18.2 18.0 17.5 16.0 16.4 16.3 15.6 15.4 13.7 12.9 9.6 9.9 7.8 6.6
11.1 17.3 21.3 18.1 17.7 16.4 18.3 17.4 14.8 17.1 12.9 11.1 10.4 9.9 8.7 9.6 11.1 10.1 9.9 15.4 16.0 17.1 14.2 13.4 13.4 12.4 11.3 11.7 11.2 11.4 11.0 12.3 14.6 14.7 12.7 12.7 11.5 9.3 7.6 6.6 7.2 7.2 8.0
14.0 13.4 19.8 18.0 14.9 13.9 14.0 19.3 17.4 14.8 13.7 11.7 9.1 8.8 13.9 15.5 14.3 14.0 12.8 11.7 10.9 9.8 9.3 8.2 10.3 10.8 10.4 10.2 12.7 10.6 10.8 12.3 10.7 8.6 9.4 7.9 8.2 8.7 8.3 8.3 7.3 7.8 8.3
2.6 5.2 7.2 15.3 16.0 15.8 12.8 12.2 14.9 21.1 19.0 17.5 19.1 19.2 16.6 16.9 15.5 14.2 11.9 11.1 10.2 7.8 9.2 9.6 8.8 8.9 12.0 9.4 12.2 10.5 10.3 8.7 5.2 7.9 7.4 7.9 8.3 7.9 8.3 7.7 7.7 8.2 8.6
2.3 3.5 5.3 6.1 8.0 10.8 13.0 17.0 15.0 15.4 15.4 16.9 16.5 12.5 11.1 10.2 9.3 7.9 6.4 5.3 8.2 4.6 6.2 6.6 9.1 7.8 7.1 7.4 6.7 6.8 6.3 8.3 8.5 9.2 8.9 9.0 9.2 9.2 8.5 8.5 7.8 8.1 7.5
3.7 6.6 8.1 9.1 11.5 12.6 11.6 13.1 14.2 14.5 15.8 14.8 12.9 12.8 12.6 11.3 9.9 7.5 5.7 4.6 6.5 7.5 6.9 7.0 7.9 8.2 6.0 6.1 6.4 8.0 8.9 10.4 8.1 9.1 8.8 9.4 10.0 8.9 8.5 7.9 10.0 10.6 9.4
9.1 11.7 11.1 11.5 11.3 10.3 11.4 10.9 10.6 10.7 11.4 10.6 10.6 10.6 11.8 8.8 10.5 11.2 9.4 8.8 8.9 9.6 9.7 10.9 7.5 7.5 8.9 9.1 9.5 9.1 9.5 10.4 10.7 10.9 12.2 12.1 9.9 10.6 11.7 12.1 12.5 12.5 11.9
9.5 9.7 10.8 9.9 8.2 8.2 6.9 7.3 7.2 7.7 8.2 8.4 9.3 8.3 6.4 6.7 8.1 8.3 8.3 8.6 10.0 12.1 13.9 13.9 11.3 11.2 11.8 11.4 11.9 13.5 10.3 10.6 10.8 11.7 12.0 13.2 11.5 13.8 14.1 14.1 13.9 13.2 14.1
7.8 7.9 6.5 6.9 10.3 8.4 7.0 6.0 5.6 6.1 6.7 7.0 8.2 9.8 6.8 6.7 6.6 8.4 9.0 9.8 9.5 9.5 10.5 12.3 12.3 12.1 12.5 12.9 13.5 13.7 12.5 13.4 13.2 13.4 13.6 14.3 14.6 14.3 14.8 17.5 16.4 16.4 17.0
7.3 6.4 5.9 6.5 7.8 10.1 10.5 8.3 9.4 9.0 9.7 10.5 9.6 11.8 10.4 11.0 10.6 9.7 8.7 8.8 9.6 11.5 9.3 9.6 9.8 10.9 10.3 11.7 12.4 12.7 13.7 14.0 12.3 12.1 11.8 12.0 11.1 12.0 13.1 11.9 12.4 12.9 12.6
7.5 6.3 5.7 5.6 6.8 8.2 10.7 10.8 10.1 8.8 8.2 10.5 11.0 11.2 9.7 9.2 10.4 11.5 11.4 11.2 10.8 11.4 9.8 9.6 8.3 8.7 8.7 8.9 9.1 10.0 9.3 12.6 13.0 11.2 10.2 10.0 9.1 9.4 9.9 9.3 10.0 8.9 9.3
8.1 7.4 6.2 6.5 6.9 7.4 10.1 10.5 10.1 9.3 9.4 9.7 10.6 9.8 9.3 8.8 9.5 10.4 11.8 11.4 11.0 11.6 10.7 10.0 10.2 8.7 10.0 10.3 10.5 10.0 11.8 11.4 10.6 11.0 9.5 8.8 8.2 6.3 5.2 5.3 6.1 6.4 5.5
8.3 9.6 8.2 8.0 9.1 8.9 8.8 10.6 10.8 9.3 9.1 9.5 8.8 9.2 10.0 10.7 10.2 9.9 8.5 8.6 9.4 8.7 8.8 8.3 8.2 8.6 8.9 9.3 10.3 10.5 10.1 10.1 10.4 8.6 7.4 6.8 6.9 6.2 4.9 4.2 3.1 3.9 3.1